Weather in Cebrikovo

Ukraine / Odesa District     47°08′42″N   30°06′15″E
temp.,
°C
wind,
m/s
gust,
m/s
humid.,
%
clouds,
%
prec.,
mm/h
press.,
hPa
HPBL,
m
1 august, sun
sun100:00+23s26623 0.0 1011110
03:00+21ssw35715 0.1 101192
06:00+21s34740 0.2 101075
09:00+26s57550 0.3 1011530
12:00+31ssw56450 0.0 10111304
15:00+33sw56370 0.0 10102070
18:00+33wsw44350 0.0 10091963
21:00+26sse46570 0.0 1010115
2 august, mon
mon200:00+23s49705 0.0 1010205
03:00+23s310740 0.0 1009207
06:00+22sse487499 0.0 1009175
09:00+27s813555 0.0 1009483
12:00+32s8114014 0.0 1008860
15:00+35s1013310 0.0 10062475
18:00+35sw3530100 0.0 10042312
21:00+22ne35726 12.2 1009108
3 august, tue
tue300:00+21nnw47830 0.0 1011159
03:00+20nnw612860 0.0 1012353
06:00+17nnw410860 0.0 1014292
09:00+20n57660 0.0 1015557
12:00+25nnw66486 0.0 10161203
15:00+27n45390 0.0 10151879
18:00+27n443910 0.0 10152021
21:00+23nne2252100 0.0 101623
4 august, wed
wed400:00+20n22611 0.0 101720
03:00+19nne11627 0.0 101812
06:00+18ene1165100 0.0 101811
09:00+23se2353100 0.0 1019405
12:00+27ssw44415 0.0 10181868
15:00+29sw44403 0.0 10171841
18:00+29w134117 0.0 10161513
21:00+25sse3450100 0.0 101694
5 august, thu
thu500:00+21ssw376014 0.0 1017146
03:00+21ssw226033 0.0 101623
06:00+20s35645 0.0 101681
09:00+25sse574612 0.0 1016493
12:00+30s67345 0.0 10141554
15:00+32s673134 0.0 10131999
18:00+30s66345 0.0 10121610
21:00+24se48480 0.0 1011142